Stations météo

réclame
Mon MeteoGroup
St. James's Park, Grande-Bretagne (3770): Température de l'air & dewpoint: 22.01.2020 11:00:00 - 28.01.2020 11:00:00 (GMT)St. James's Park, Grande-Bretagne (3770): Température de l'air -20cm & Température de l'air -100cm: 22.01.2020 11:00:00 - 28.01.2020 11:00:00 (GMT)St. James's Park, Grande-Bretagne (3770): Quantités de précipitations: 22.01.2020 11:00:00 - 28.01.2020 11:00:00 (GMT)
Date & Time tt [°C] td [°C] tt -20cm [°C] tt -100cm [°C] rr [mm]
28.01.2020 11:00:00 5,8 0,5 - - 0,2
28.01.2020 10:00:00 4,3 0,5 - - 0,0
28.01.2020 09:00:00 3,2 0,5 6,0 8,2 0,0
28.01.2020 08:00:00 3,0 0,5 - - 0,0
28.01.2020 07:00:00 3,3 0,8 - - 0,0
28.01.2020 06:00:00 3,3 1,1 - - 0,0
28.01.2020 05:00:00 3,6 1,4 - - 0,0
28.01.2020 04:00:00 4,5 2,3 - - 0,2
28.01.2020 03:00:00 5,0 3,8 - - 0,2
28.01.2020 02:00:00 5,0 3,5 - - 1,6
28.01.2020 01:00:00 6,4 4,5 - - 0,2
28.01.2020 00:00:00 6,1 4,2 - - 0,0
27.01.2020 23:00:00 6,2 4,5 - - 0,2
27.01.2020 22:00:00 6,3 5,1 - - 0,0
27.01.2020 21:00:00 5,9 4,7 - - 0,0
27.01.2020 20:00:00 6,2 4,6 - - 0,0
27.01.2020 19:00:00 6,0 5,3 - - 0,0
27.01.2020 18:00:00 5,0 3,9 - - 0,4
27.01.2020 17:00:00 5,8 4,7 - - 2,6
27.01.2020 16:00:00 6,2 4,7 - - 2,2
27.01.2020 15:00:00 8,0 6,4 - - 2,0
27.01.2020 14:00:00 9,4 5,4 - - 0,0
27.01.2020 13:00:00 9,5 6,0 - - 0,0
27.01.2020 12:00:00 9,3 5,6 - - 0,0
27.01.2020 11:00:00 9,3 5,8 - - 0,0
27.01.2020 10:00:00 8,2 5,4 - - 0,0
27.01.2020 09:00:00 8,3 4,6 6,7 8,2 0,0
27.01.2020 08:00:00 8,2 5,5 - - 0,2
27.01.2020 07:00:00 8,5 6,2 - - 0,0
27.01.2020 06:00:00 8,1 6,1 - - 0,0
27.01.2020 05:00:00 8,2 5,9 - - 0,0
27.01.2020 04:00:00 8,1 6,0 - - 0,0
27.01.2020 03:00:00 8,5 6,8 - - 0,0
27.01.2020 02:00:00 8,1 6,9 - - 0,0
27.01.2020 01:00:00 8,0 6,7 - - 0,0
27.01.2020 00:00:00 8,4 7,2 - - 0,0
26.01.2020 23:00:00 7,4 6,1 - - 0,0
26.01.2020 22:00:00 9,0 7,4 - - 0,0
26.01.2020 21:00:00 9,0 7,6 - - 0,0
26.01.2020 20:00:00 9,5 7,8 - - 0,0
26.01.2020 19:00:00 9,7 8,3 - - 0,2
26.01.2020 18:00:00 9,3 7,9 - - 0,4
26.01.2020 17:00:00 9,4 7,7 - - 1,4
26.01.2020 16:00:00 9,8 7,7 - - 0,2
26.01.2020 15:00:00 9,7 7,6 - - 0,2
26.01.2020 14:00:00 10,3 6,7 - - 0,0
26.01.2020 13:00:00 10,3 6,3 - - 0,0
26.01.2020 12:00:00 10,1 6,7 - - 0,0
26.01.2020 11:00:00 9,5 6,7 - - 0,0
26.01.2020 10:00:00 8,6 6,8 - - 0,0
26.01.2020 09:00:00 8,1 6,1 6,7 8,2 0,0
26.01.2020 08:00:00 7,8 5,5 - - 0,0
26.01.2020 07:00:00 7,8 5,3 - - 0,0
26.01.2020 06:00:00 7,9 5,3 - - 0,0
26.01.2020 05:00:00 7,7 5,8 - - 0,0
26.01.2020 04:00:00 7,6 5,9 - - 0,0
26.01.2020 03:00:00 7,7 6,9 - - 0,0
26.01.2020 02:00:00 7,7 6,5 - - 0,0
26.01.2020 01:00:00 6,8 5,7 - - 0,0
26.01.2020 00:00:00 6,6 5,5 - - 0,0
25.01.2020 23:00:00 6,4 5,4 - - 0,0
25.01.2020 22:00:00 6,2 5,2 - - 0,0
25.01.2020 21:00:00 5,8 4,9 - - 0,0
25.01.2020 20:00:00 5,6 4,5 - - 0,0
25.01.2020 19:00:00 5,8 4,2 - - 0,0
25.01.2020 18:00:00 6,1 4,1 - - 0,0
25.01.2020 17:00:00 6,4 4,3 - - 0,0
25.01.2020 16:00:00 6,6 4,2 - - 0,0
25.01.2020 15:00:00 6,6 4,4 - - 0,0
25.01.2020 14:00:00 6,4 4,3 - - 0,0
25.01.2020 13:00:00 6,5 4,4 - - 0,0
25.01.2020 12:00:00 6,5 4,2 - - 0,0
25.01.2020 11:00:00 6,3 4,1 - - 0,0
25.01.2020 10:00:00 5,8 4,7 - - 0,0
25.01.2020 09:00:00 6,0 4,2 6,2 8,2 0,0
25.01.2020 08:00:00 6,3 3,7 - - 0,0
25.01.2020 07:00:00 6,1 3,4 - - 0,0
25.01.2020 06:00:00 6,1 2,7 - - 0,0
25.01.2020 05:00:00 6,3 2,3 - - 0,0
25.01.2020 04:00:00 6,5 1,9 - - 0,0
25.01.2020 03:00:00 6,4 2,9 - - 0,0
25.01.2020 02:00:00 6,5 3,2 - - 0,0
25.01.2020 01:00:00 6,6 3,8 - - 0,0
25.01.2020 00:00:00 6,7 4,0 - - 0,0
24.01.2020 23:00:00 6,8 4,6 - - 0,0
24.01.2020 22:00:00 6,9 4,8 - - 0,0
24.01.2020 21:00:00 7,1 4,9 - - 0,0
24.01.2020 20:00:00 6,9 4,9 - - 0,0
24.01.2020 19:00:00 6,8 5,3 - - 0,0
24.01.2020 18:00:00 6,8 5,3 - - 0,0
24.01.2020 17:00:00 6,9 5,2 - - 0,0
24.01.2020 16:00:00 7,0 5,2 - - 0,0
24.01.2020 15:00:00 7,0 5,2 - - 0,0
24.01.2020 14:00:00 6,9 5,3 - - 0,0
24.01.2020 13:00:00 7,1 5,0 - - 0,0
24.01.2020 12:00:00 7,2 4,8 - - 0,0
24.01.2020 11:00:00 7,1 4,2 - - 0,0
24.01.2020 10:00:00 6,8 4,6 - - 0,0
24.01.2020 09:00:00 6,4 4,5 6,2 8,0 0,0
24.01.2020 08:00:00 6,5 4,6 - - 0,0
24.01.2020 07:00:00 6,9 4,2 - - 0,0
24.01.2020 06:00:00 6,9 4,7 - - 0,0
24.01.2020 05:00:00 6,8 4,6 - - 0,0
24.01.2020 04:00:00 7,1 4,7 - - 0,0
24.01.2020 03:00:00 7,2 5,0 - - 0,0
24.01.2020 02:00:00 7,0 5,4 - - 0,0
24.01.2020 01:00:00 7,0 5,1 - - 0,0
24.01.2020 00:00:00 7,1 5,2 - - 0,0
23.01.2020 23:00:00 7,3 5,2 - - 0,0
23.01.2020 22:00:00 7,5 5,1 - - 0,0
23.01.2020 21:00:00 7,6 5,2 - - 0,0
23.01.2020 20:00:00 7,9 5,2 - - 0,0
23.01.2020 19:00:00 7,9 5,0 - - 0,0
23.01.2020 18:00:00 8,0 5,4 - - 0,0
23.01.2020 17:00:00 7,8 5,2 - - 0,0
23.01.2020 16:00:00 8,2 5,0 - - 0,0
23.01.2020 15:00:00 8,2 4,9 - - 0,0
23.01.2020 14:00:00 8,2 5,3 - - 0,0
23.01.2020 13:00:00 8,0 5,9 - - 0,0
23.01.2020 12:00:00 8,0 5,7 - - 0,0
23.01.2020 11:00:00 8,2 5,2 - - 0,0
23.01.2020 10:00:00 8,0 5,2 - - 0,0
23.01.2020 09:00:00 7,8 5,0 5,9 8,2 0,0
23.01.2020 08:00:00 8,0 5,1 - - 0,0
23.01.2020 07:00:00 8,3 4,7 - - 0,0
23.01.2020 06:00:00 8,0 4,9 - - 0,0
23.01.2020 05:00:00 8,0 4,9 - - 0,0
23.01.2020 04:00:00 7,9 5,0 - - 0,0
23.01.2020 03:00:00 7,9 5,1 - - 0,0
23.01.2020 02:00:00 7,9 5,2 - - 0,0
23.01.2020 01:00:00 7,8 5,3 - - 0,0
23.01.2020 00:00:00 7,9 5,6 - - 0,0
22.01.2020 23:00:00 7,7 6,0 - - 0,0
22.01.2020 22:00:00 8,0 6,0 - - 0,0
22.01.2020 21:00:00 8,1 5,8 - - 0,0
22.01.2020 20:00:00 8,1 5,8 - - 0,0
22.01.2020 19:00:00 8,4 6,4 - - 0,0
22.01.2020 18:00:00 8,1 6,4 - - 0,0
22.01.2020 17:00:00 8,2 6,6 - - 0,0
22.01.2020 16:00:00 8,3 6,7 - - 0,0
22.01.2020 15:00:00 8,1 6,6 - - 0,0
22.01.2020 14:00:00 8,0 6,5 - - 0,0
22.01.2020 13:00:00 7,3 6,1 - - 0,0
22.01.2020 12:00:00 6,6 5,7 - - 0,0
22.01.2020 11:00:00 6,3 5,2 - - 0,0

tt = Température de l'air
td = dewpoint
tt -20cm = Température de l'air -20cm
tt -100cm = Température de l'air -100cm
rr = Quantités de précipitations

stations d'obs. à proximité